Flag for Switzerland Weather past 2 weeks in Spiez, Bern, Switzerland

Now
63 °F

Mild.


Feels Like: 63 °F
Forecast: 55 / 74 °F
Wind: 5 mph from Southwest

Location: Interlaken

Current Time: Jul 26, 2014 at 6:11:41 PM

Latest Report: Jul 26, 2014 at 5:00 PM


Visibility: N/A

Pressure: 29.96 "Hg

Humidity: 87%

Dew point: 59 °F

Location of SpiezLocation

Historic Weather in Spiez — Graph

°F

Spiez temperature yesterday

Maximum temperature yesterday: 79 °F (at 5:00 PM)
Minimum temperature yesterday: 54 °F (at 7:00 AM)
Average temperature yesterday: 66 °F

Past Weeks' High & Low Weather Summary

 TemperatureHumidityPressure
High87 °F (Jul 18, 4:00 PM)98% (Jul 22, 8:00 AM)30.20 "Hg (Jul 22, 8:00 AM)
Low54 °F (Jul 25, 7:00 AM)31% (Jul 18, 4:00 PM)29.78 "Hg (Jul 25, 6:00 PM)
Average66 °F77%29.97 "Hg
* Reported Jul 11 4:00 PM — Jul 26 4:00 PM, Spiez, Weather by CustomWeather, © 2014

Note: Actual official high and low records may vary slightly from our data, if they occured in-between our weather recording intervals... More about our weather records

Advertising

Spiez weather history for previous 24 hours

 ConditionsComfort  
Time TempWeatherWind HumidityBarometerVisibility
4:00 PM
Jul 26
62 °FMild.3 mph87%29.96 "HgN/A
3:00 PM62 °FCool.7 mph86%29.97 "HgN/A
2:00 PM62 °FCool.10 mph83%29.96 "HgN/A
1:00 PM62 °FCool.7 mph90%29.96 "HgN/A
12:00 PM62 °FCool.6 mph91%29.96 "HgN/A
11:00 AM62 °FCool.2 mph90%29.96 "HgN/A
10:00 AM61 °FCool.2 mph91%29.96 "HgN/A
9:00 AM61 °FCool.1 mph95%29.96 "HgN/A
8:00 AM61 °FCool.2 mph95%29.95 "HgN/A
7:00 AM60 °FCool.No wind94%29.93 "HgN/A
6:00 AM60 °FCool.2 mph94%29.93 "HgN/A
5:00 AM61 °FCool.1 mph92%29.92 "HgN/A
4:00 AM61 °FCool.6 mph92%29.91 "HgN/A
3:00 AM61 °FCool.2 mph91%29.92 "HgN/A
2:00 AM61 °FCool.3 mph91%29.93 "HgN/A
1:00 AM61 °FCool.1 mph90%29.94 "HgN/A
12:00 AM62 °FCool.7 mph87%29.94 "HgN/A
11:00 PM
Jul 25
63 °FMild.3 mph89%29.93 "HgN/A
10:00 PM65 °FMild.3 mph71%29.91 "HgN/A
9:00 PM69 °FMild.9 mph57%29.87 "HgN/A
8:00 PM73 °FMild.17 mph46%29.82 "HgN/A
7:00 PM76 °FMild.2 mph52%29.80 "HgN/A
6:00 PM79 °FWarm.5 mph42%29.78 "HgN/A
Weather by CustomWeather, © 2014

See weather overviewHow to use our weather pages